Snowfall_Accumulation
0.0 0.0 0.0 0.0 0.0 0.0 0.0 0.0 0.0 0.0 0.0 0.0 0.0 0.0 0.0 0.0 0.0 0.0 0.0 0.0 0.0 0.0 0.0 0.0 0.0 0.0 0.0 0.0 0.0 0.0 0.0 0.0 0.0 0.1 0.0 0.0 0.0 0.0 0.0 0.0 0.0 0.0 0.0
0.0 0.0 0.0 0.0 0.0 0.0 0.0 0.0 0.0 0.0 0.0 0.0 0.0 0.0 0.0 0.0 0.0 0.0 0.0 0.0 0.0 0.0 0.0 0.0 0.0 0.0 0.0 0.0 0.0 0.0 0.0 0.0 0.0 0.1 0.0 0.3 0.4 0.1 0.2 0.0 0.0 0.0 0.0
0.0 0.0 0.0 0.0 0.0 0.0 0.0 0.0 0.0 0.0 0.0 0.0 0.0 0.0 0.0 0.0 0.0 0.0 0.0 0.0 0.0 0.0 0.0 0.0 0.0 0.0 0.0 0.0 0.1 0.0 0.4 0.3 0.2 0.1 0.3 0.8 1.3 0.9 2.0 1.6 1.1 0.0 0.0
0.0 0.0 0.0 0.0 0.0 0.0 0.0 0.0 0.0 0.0 0.0 0.0 0.0 0.0 0.0 0.0 0.0 0.0 0.0 0.0 0.0 0.0 0.0 0.0 0.0 0.3 0.4 0.0 0.9 1.0 0.7 1.0 0.5 0.7 0.3 1.0 0.8 0.5 0.3 0.4 0.4 0.2 0.0
0.0 0.0 0.0 0.0 0.0 0.0 0.0 0.0 0.0 0.0 0.0 0.0 0.0 0.0 0.0 0.0 0.0 0.0 0.0 0.0 0.0 0.0 0.0 0.2 0.1 0.0 0.8 1.9 1.5 1.0 1.1 0.8 0.9 1.0 0.9 0.3 0.3 0.3 0.3 0.2 0.1 0.0 0.0
0.0 0.0 0.0 0.0 0.0 0.0 0.0 0.0 0.0 0.0 0.0 0.0 0.0 0.0 0.0 0.0 0.0 0.0 0.0 0.0 0.0 0.0 0.0 1.3 1.2 1.7 0.6 0.0 0.0 0.0 0.0 0.8 1.1 0.9 0.4 0.1 0.1 0.1 0.0 0.0 0.2 0.9 3.0
0.0 0.0 0.0 0.0 0.0 0.0 0.0 0.0 0.0 0.0 0.0 0.0 0.0 0.0 0.0 0.0 0.0 0.0 0.0 0.0 0.0 1.7 1.7 1.5 0.4 0.5 0.4 0.5 0.1 0.0 0.2 0.0 0.0 0.1 0.1 0.0 0.0 0.0 0.4 0.5 1.3 2.1 2.0
0.0 0.0 0.0 0.0 0.0 0.0 0.0 0.0 0.0 0.0 0.0 0.0 0.0 0.0 0.0 0.0 0.0 0.0 0.8 0.3 1.2 0.9 1.1 0.7 0.3 0.0 0.0 0.1 0.1 0.4 0.0 0.0 0.0 0.0 0.0 0.0 0.1 0.1 0.3 0.5 1.1 3.4 3.6
0.0 0.0 0.0 0.0 0.0 0.0 0.0 0.0 0.1 0.2 2.7 3.3 2.1 1.6 2.2 4.8 0.9 1.3 2.0 1.7 1.3 0.9 0.3 0.0 0.0 0.0 0.0 0.0 0.2 0.9 0.7 0.6 0.0 0.0 0.0 0.0 0.0 0.0 0.0 0.4 2.4 5.4 7.4
0.9 1.2 0.4 0.0 0.1 1.4 0.5 2.0 3.1 2.1 2.7 2.5 5.4 4.1 2.0 2.9 0.7 1.1 1.1 0.6 0.3 0.2 0.1 0.0 0.0 0.0 0.0 0.0 0.4 0.6 1.2 1.5 0.9 1.4 0.9 0.2 0.1 0.0 0.0 0.1 0.9 8.4 8.3
0.5 0.4 0.0 0.4 1.5 2.2 2.8 1.6 3.0 3.7 3.3 3.2 3.0 2.4 1.1 0.3 0.1 0.0 0.0 0.0 0.1 0.3 0.0 0.0 0.0 0.0 0.0 0.0 0.2 0.5 1.9 0.8 2.1 3.3 2.8 2.7 2.5 2.4 0.4 0.6 1.1 4.6 13.2
0.0 0.0 1.4 0.7 1.1 2.2 0.6 1.9 1.8 0.5 0.4 0.7 0.4 0.1 0.0 0.0 0.0 0.0 0.0 0.0 0.0 0.0 0.3 0.1 0.0 0.1 0.0 0.0 0.4 0.0 0.1 0.6 1.3 1.3 1.9 1.9 3.0 2.6 2.4 3.1 3.3 3.6 3.7
0.0 0.0 0.0 0.0 0.0 0.0 0.0 0.0 0.0 0.1 0.0 0.1 0.3 0.3 0.1 0.0 0.0 0.0 0.0 0.0 0.0 0.1 0.0 0.0 0.0 0.0 0.1 0.0 0.1 0.1 0.2 1.2 1.7 2.2 1.8 1.9 1.9 1.7 2.2 2.1 2.6 3.5 3.4
0.5 0.8 0.0 0.1 0.0 0.0 0.0 0.0 0.0 0.0 0.1 0.5 0.7 0.6 0.6 0.3 0.0 0.0 0.0 0.0 0.0 0.1 0.0 0.0 0.2 0.1 0.5 0.2 0.9 0.7 0.4 0.4 1.4 1.6 2.4 1.7 1.5 2.0 3.4 3.5 4.6 4.4 6.6
0.2 0.1 0.0 0.1 0.1 0.0 0.0 0.1 0.1 0.0 0.0 0.4 0.2 0.3 0.4 0.4 0.2 0.0 0.0 0.2 0.3 0.1 0.3 0.3 0.4 1.6 2.3 2.1 1.8 1.8 0.6 1.8 1.9 1.7 3.4 4.0 2.9 3.1 3.3 3.5 4.3 7.0 11.5
0.6 0.6 0.2 0.4 0.1 0.0 0.1 0.1 0.0 0.1 0.1 0.1 0.1 0.1 0.0 0.6 0.3 0.3 0.1 0.2 0.4 0.7 2.5 1.9 2.2 2.2 2.7 2.9 2.8 3.2 3.5 3.2 3.1 5.0 5.8 5.5 7.1 7.3 7.1 9.1 9.2 10.5 11.8
1.0 0.7 0.5 0.4 0.2 0.5 0.6 0.9 2.9 1.1 0.3 0.0 0.3 0.4 0.5 0.8 0.6 0.6 0.6 0.6 0.6 1.1 2.9 2.5 2.5 2.9 3.2 3.3 3.9 4.4 5.7 4.5 4.6 7.5 9.4 10.0 12.1 11.8 12.8 12.0 8.4 9.2 10.1
1.0 1.1 0.9 0.2 1.6 1.6 2.2 2.2 1.8 2.0 2.7 2.0 0.7 0.5 0.4 0.5 0.5 0.5 0.4 0.6 2.5 2.0 2.3 2.5 2.6 2.8 3.8 5.1 5.1 7.2 7.3 7.8 8.6 8.9 10.1 10.9 13.8 16.4 14.5 12.0 9.1 12.1 12.1
1.7 2.2 1.6 1.5 2.2 2.2 2.6 2.6 2.7 3.3 3.7 2.7 2.9 1.3 0.6 0.5 0.6 0.7 0.7 1.4 2.7 4.1 2.9 4.1 3.5 3.0 4.7 5.3 7.1 9.2 9.6 10.6 10.6 12.7 11.3 11.3 11.2 16.6 14.6 9.0 10.1 6.8 10.5
2.6 2.0 2.3 2.8 2.5 3.1 3.0 2.8 4.0 3.8 4.8 4.6 4.1 3.4 2.2 1.9 4.5 4.5 2.9 2.1 3.7 4.5 3.3 4.4 4.0 4.6 6.1 8.0 9.6 11.1 11.9 9.9 10.0 9.0 8.3 9.0 10.3 13.3 16.5 13.0 10.5 14.0 9.2
3.7 4.0 3.2 3.4 3.1 2.8 3.0 3.0 3.7 4.9 5.4 5.1 4.8 3.6 2.5 6.4 7.8 5.1 4.6 4.1 3.6 5.6 5.9 6.7 6.5 7.8 8.3 10.4 11.1 11.7 10.8 8.7 7.6 9.2 9.0 8.5 10.9 16.0 10.0 11.1 11.6 10.4 10.5
6.4 6.4 5.4 5.5 4.8 4.6 4.3 4.6 5.7 5.6 5.5 6.9 7.7 7.5 3.7 8.6 8.5 8.1 6.3 4.6 6.2 5.1 4.6 9.3 10.1 9.2 8.9 12.9 12.9 14.4 11.6 9.0 7.3 9.0 9.5 9.2 11.6 11.3 10.8 12.0 10.9 11.2 11.6
6.6 7.0 7.5 7.4 6.7 6.1 7.9 7.5 8.0 7.1 8.6 9.2 9.4 10.7 9.7 9.0 8.3 8.7 8.0 7.9 8.5 8.2 7.9 9.5 11.7 9.3 6.0 7.4 11.4 15.2 18.2 11.2 8.8 12.0 17.6 13.1 11.2 10.9 12.9 16.2 12.2 14.1 10.5
7.2 7.2 7.9 8.1 8.6 9.3 8.7 9.2 10.0 10.0 9.8 11.8 11.1 9.3 9.1 8.1 8.5 10.2 9.9 10.4 10.2 9.4 8.4 9.1 8.7 8.4 8.1 9.2 10.3 11.3 12.2 11.9 15.4 15.9 17.5 24.5 17.8 11.7 13.3 13.2 10.5 9.5 9.9
6.7 8.0 8.9 8.6 8.7 10.0 9.6 10.1 10.2 9.8 11.5 11.0 9.4 8.3 9.0 10.3 10.7 11.4 11.7 11.8 12.2 11.0 9.0 8.4 8.6 9.6 8.8 10.8 10.5 9.9 9.2 9.9 14.8 17.3 23.9 22.2 19.7 13.8 14.1 13.7 10.2 10.5 10.4
10.7 10.1 10.8 10.5 10.3 9.9 10.8 10.7 10.0 10.0 10.0 9.1 8.8 9.7 9.4 10.9 10.9 11.6 13.0 14.0 13.3 11.8 10.3 10.3 10.3 10.9 10.7 10.9 9.3 9.8 8.6 8.1 9.5 9.6 15.7 22.0 19.7 15.3 13.9 15.8 13.1 15.3 14.3